AJ5TT Weather Reports


time (UTC)temp
C
wind
direction
speed
KPH
gust
KPH
rain 1hr
cm
rain 24hr
cm
rain mn
cm
humidity
%
barometer
mb
20260831210057 27 348 1.6 4.8 0.00 2.84 2.84 77 1015.9
20260831204604 27 30 4.8 16.1 0.00 2.84 2.84 76 1016.1
20260831203102 29 98 1.6 4.8 0.03 2.84 2.84 77 1016.4
20260831201609 30 145 1.6 9.7 2.57 2.84 2.84 74 1016.1
20260831200108 29 227 1.6 9.7 2.57 2.84 2.84 77 1016.0
20260831194635 28 222 1.6 8.0 2.57 2.84 2.84 83 1016.5
20260831193102 27 58 6.4 22.5 2.54 2.82 2.82 82 1016.5
20260831191559 31 311 1.6 6.4 0.00 0.28 0.28 70 1016.6
20260831190120 31 221 4.8 8.0 0.00 0.28 0.28 70 1016.5
20260831184634 31 265 3.2 11.3 0.00 0.28 0.28 70 1016.6
20260831183108 32 238 3.2 8.0 0.00 0.28 0.28 71 1016.9
20260831181603 31 175 1.6 4.8 0.00 0.28 0.28 72 1017.1
20260831180107 30 0 0.0 3.2 0.28 0.28 0.28 77 1017.4
20260831174612 29 260 1.6 4.8 0.28 0.28 0.28 83 1017.5
20260831173108 28 0 0.0 3.2 0.28 0.28 0.28 82 1017.6
20260831171603 27 240 1.6 3.2 0.28 0.28 0.28 85 1017.8
20260831170059 27 222 1.6 8.0 0.00 0.00 0.00 76 1017.8
20260831164606 29 257 1.6 11.3 0.00 0.00 0.00 78 1018.0
20260831163105 30 40 1.6 4.8 0.00 0.00 0.00 75 1017.9
20260831161606 30 44 1.6 9.7 0.00 0.00 0.00 73 1017.8
20260831160105 31 39 4.8 12.9 0.00 0.00 0.00 72 1017.8
20260831154622 30 56 1.6 6.4 0.00 0.00 0.00 72 1017.7
20260831153104 31 56 1.6 9.7 0.00 0.00 0.00 72 1017.5
20260831151602 31 26 3.2 6.4 0.00 0.00 0.00 74 1017.7
20260831150104 30 32 3.2 8.0 0.00 0.00 0.00 78 1017.5
20260831144633 29 327 1.6 8.0 0.00 0.00 0.00 80 1017.4
20260831143100 29 352 1.6 6.4 0.00 0.00 0.00 81 1017.5
20260831141601 28 352 3.2 6.4 0.00 0.00 0.00 83 1017.5
20260831134605 26 332 1.6 3.2 0.00 0.00 0.00 91 1017.2
20260831133103 25 0 0.0 0.0 0.00 0.00 0.00 93 1017.0
20260831131603 25 0 0.0 0.0 0.00 0.00 0.00 94 1016.8
20260831130116 25 0 0.0 0.0 0.00 0.00 0.00 94 1016.6
20260831124603 24 0 0.0 0.0 0.00 0.00 0.00 94 1016.4
20260831123104 24 0 0.0 0.0 0.00 0.00 0.00 94 1016.3
20260831121605 24 0 0.0 0.0 0.00 0.00 0.00 93 1016.0
20260831120110 24 0 0.0 0.0 0.00 0.00 0.00 93 1016.0
20260831114606 25 0 0.0 3.2 0.00 0.00 0.00 94 1015.7
20260831113106 24 0 0.0 3.2 0.00 0.00 0.00 94 1015.6
20260831111612 24 0 0.0 0.0 0.00 0.00 0.00 94 1015.7
20260831110137 24 0 0.0 0.0 0.00 0.00 0.00 93 1015.6
20260831104603 24 0 0.0 0.0 0.00 0.00 0.00 93 1015.7
20260831103109 24 0 0.0 0.0 0.00 0.00 0.00 93 1015.8
20260831101559 24 0 0.0 3.2 0.00 0.00 0.00 93 1015.6
20260831094604 24 0 0.0 3.2 0.00 0.00 0.00 93 1015.7
20260831093102 24 0 0.0 0.0 0.00 0.00 0.00 93 1015.7
20260831091607 24 0 0.0 0.0 0.00 0.00 0.00 93 1015.7
20260831090059 24 0 0.0 3.2 0.00 0.00 0.00 92 1015.6
20260831084607 25 0 0.0 0.0 0.00 0.00 0.00 92 1015.7
20260831083100 25 0 0.0 0.0 0.00 0.00 0.00 92 1015.8
20260831081635 25 0 0.0 0.0 0.00 0.00 0.00 91 1015.8
20260831080106 25 0 0.0 0.0 0.00 0.00 0.00 91 1015.9
20260831074605 25 0 0.0 0.0 0.00 0.00 0.00 90 1015.9
20260831073138 25 0 0.0 0.0 0.00 0.00 0.00 89 1015.9
20260831071604 25 0 0.0 3.2 0.00 0.00 0.00 89 1016.0
20260831070108 25 0 0.0 0.0 0.00 0.00 0.00 89 1016.1
20260831064609 26 0 0.0 3.2 0.00 0.00 0.00 87 1016.1
20260831063056 26 0 0.0 3.2 0.00 0.00 0.00 85 1016.3
20260831061605 26 0 0.0 3.2 0.00 0.00 0.00 85 1016.3
20260831060116 26 0 0.0 3.2 0.00 0.00 0.00 84 1016.3
20260831054607 26 0 0.0 3.2 0.00 0.00 0.00 84 1016.1
20260831053057 27 207 0.0 4.8 0.00 0.00 0.00 83 1016.2
20260831051601 27 171 0.0 3.2 0.00 0.00 0.00 83 1016.2
20260831050142 27 0 0.0 3.2 0.00 0.00 0.00 83 1016.1
20260831044606 27 194 1.6 3.2 0.00 0.00 0.00 82 1016.0
20260831043105 27 0 0.0 4.8 0.00 0.00 0.00 82 1015.9
20260831041604 27 150 0.0 4.8 0.00 0.00 0.00 81 1016.0
20260831040106 27 0 0.0 3.2 0.00 0.00 0.00 81 1015.9
20260831034607 27 176 0.0 3.2 0.00 0.00 0.00 80 1015.9
20260831033103 27 201 0.0 3.2 0.00 0.00 0.00 80 1015.7
20260831031607 27 181 0.0 4.8 0.00 0.00 0.00 79 1015.7
20260831030107 27 234 1.6 4.8 0.00 0.00 0.00 79 1015.5
20260831024605 28 179 0.0 3.2 0.00 0.00 0.00 78 1015.4
20260831023102 28 0 0.0 0.0 0.00 0.00 0.00 78 1015.1
20260831021607 28 0 0.0 3.2 0.00 0.00 0.00 77 1015.0
20260831020108 28 0 0.0 6.4 0.00 0.00 0.00 77 1014.8
20260831014603 28 168 1.6 6.4 0.00 0.00 0.00 76 1014.7
20260831013059 29 233 1.6 6.4 0.00 0.00 0.00 75 1014.8
20260831011557 29 190 1.6 6.4 0.00 0.00 0.00 74 1014.8
20260831010107 30 0 1.6 6.4 0.00 0.00 0.00 72 1014.8
20260831004614 30 225 1.6 8.0 0.00 0.00 0.00 70 1014.7
20260831003100 30 186 1.6 4.8 0.00 0.00 0.00 69 1014.7
20260831001607 31 252 3.2 9.7 0.00 0.00 0.00 68 1014.7
20260831000106 31 125 4.8 11.3 0.00 0.00 0.00 65 1014.9
20260830234609 32 196 3.2 9.7 0.00 0.00 0.00 63 1014.6
20260830233108 32 155 3.2 11.3 0.00 0.00 0.00 61 1014.6
20260830231608 33 213 4.8 14.5 0.00 0.00 0.00 60 1014.7
20260830230106 33 119 3.2 11.3 0.00 0.00 0.00 57 1014.7
20260830224606 33 123 3.2 9.7 0.00 0.00 0.00 55 1014.8
20260830223054 34 207 1.6 9.7 0.00 0.00 0.00 54 1014.7
20260830221604 35 164 3.2 11.3 0.00 0.00 0.00 54 1014.8
20260830220106 35 185 4.8 12.9 0.00 0.00 0.00 51 1014.6
20260830214559 35 184 3.2 11.3 0.00 0.00 0.00 50 1014.6
20260830213100 36 116 3.2 11.3 0.00 0.00 0.00 49 1014.6
20260830211557 36 212 3.2 8.0 0.00 0.00 0.00 48 1014.8